| time (UTC) | temp F | wind direction | speed MPH | gust MPH | rain 1hr in | rain 24hr in | rain mn in | humidity % | barometer mb |
| 20260504034659 | 31 | 343 | 3.0 | 10.0 | 0.00 | 0.00 | 0.00 | 57 | 1008.3 |
| 20260504034600 | 31 | 306 | 10.0 | 10.0 | 0.00 | 0.00 | 0.00 | 57 | 1008.3 |
| 20260504034159 | 31 | 312 | 7.0 | 9.0 | 0.00 | 0.00 | 0.00 | 59 | 1008.3 |
| 20260504033659 | 31 | 317 | 2.0 | 10.0 | 0.00 | 0.00 | 0.00 | 60 | 1008.2 |
| 20260504033500 | 31 | 303 | 4.0 | 10.0 | 0.00 | 0.00 | 0.00 | 60 | 1008.2 |
| 20260504033159 | 31 | 309 | 4.0 | 9.0 | 0.00 | 0.00 | 0.00 | 62 | 1008.2 |
| 20260504032659 | 31 | 326 | 3.0 | 6.0 | 0.00 | 0.00 | 0.00 | 65 | 1008.2 |
| 20260504032401 | 31 | 295 | 2.0 | 6.0 | 0.00 | 0.00 | 0.00 | 65 | 1008.2 |
| 20260504032159 | 31 | 309 | 2.0 | 8.0 | 0.00 | 0.00 | 0.00 | 66 | 1008.2 |
| 20260504031659 | 31 | 277 | 8.0 | 8.0 | 0.00 | 0.00 | 0.00 | 66 | 1008.2 |
| 20260504031301 | 31 | 277 | 1.0 | 11.0 | 0.00 | 0.00 | 0.00 | 66 | 1008.2 |
| 20260504031159 | 31 | 305 | 2.0 | 11.0 | 0.00 | 0.00 | 0.00 | 67 | 1008.2 |
| 20260504030659 | 31 | 315 | 2.0 | 8.0 | 0.00 | 0.00 | 0.00 | 68 | 1008.2 |
| 20260504030159 | 31 | 286 | 4.0 | 6.0 | 0.00 | 0.00 | 0.00 | 69 | 1008.4 |
| 20260504025659 | 31 | 298 | 3.0 | 7.0 | 0.00 | 0.00 | 0.00 | 73 | 1008.4 |
| 20260504025159 | 31 | 261 | 6.0 | 7.0 | 0.00 | 0.00 | 0.00 | 73 | 1008.5 |
| 20260504025101 | 31 | 285 | 6.0 | 6.0 | 0.00 | 0.00 | 0.00 | 73 | 1008.4 |
| 20260504024659 | 31 | 285 | 1.0 | 6.0 | 0.00 | 0.00 | 0.00 | 73 | 1008.5 |
| 20260504024200 | 31 | 299 | 0.0 | 4.0 | 0.00 | 0.00 | 0.00 | 73 | 1008.7 |
| 20260504024002 | 31 | 281 | 0.0 | 4.0 | 0.00 | 0.00 | 0.00 | 73 | 1008.7 |
| 20260504023659 | 31 | 281 | 3.0 | 4.0 | 0.00 | 0.00 | 0.00 | 73 | 1008.7 |
| 20260504023159 | 31 | 309 | 0.0 | 4.0 | 0.00 | 0.00 | 0.00 | 73 | 1008.7 |
| 20260504022901 | 31 | 309 | 1.0 | 5.0 | 0.00 | 0.00 | 0.00 | 73 | 1008.7 |
| 20260504022700 | 31 | 292 | 3.0 | 5.0 | 0.00 | 0.00 | 0.00 | 73 | 1008.7 |
| 20260504022159 | 31 | 330 | 0.0 | 6.0 | 0.00 | 0.00 | 0.00 | 74 | 1008.8 |
| 20260504021801 | 31 | 298 | 3.0 | 6.0 | 0.00 | 0.00 | 0.00 | 74 | 1008.8 |
| 20260504021700 | 31 | 281 | 6.0 | 6.0 | 0.00 | 0.00 | 0.00 | 74 | 1008.8 |
| 20260504021200 | 31 | 310 | 2.0 | 6.0 | 0.00 | 0.00 | 0.00 | 74 | 1008.9 |
| 20260504020659 | 31 | 299 | 0.0 | 4.0 | 0.00 | 0.00 | 0.00 | 75 | 1008.8 |
| 20260504020200 | 31 | 310 | 1.0 | 8.0 | 0.00 | 0.00 | 0.00 | 75 | 1008.8 |
| 20260504015700 | 31 | 300 | 2.0 | 6.0 | 0.00 | 0.00 | 0.00 | 76 | 1008.8 |
| 20260504015601 | 31 | 295 | 3.0 | 4.0 | 0.00 | 0.00 | 0.00 | 76 | 1008.8 |
| 20260504015200 | 31 | 322 | 2.0 | 5.0 | 0.00 | 0.00 | 0.00 | 76 | 1008.8 |
| 20260504014700 | 31 | 310 | 2.0 | 4.0 | 0.00 | 0.00 | 0.00 | 76 | 1008.8 |
| 20260504014501 | 31 | 300 | 2.0 | 5.0 | 0.00 | 0.00 | 0.00 | 76 | 1008.8 |
| 20260504014200 | 31 | 296 | 1.0 | 8.0 | 0.00 | 0.00 | 0.00 | 76 | 1008.7 |
| 20260504013700 | 31 | 298 | 1.0 | 7.0 | 0.00 | 0.00 | 0.00 | 76 | 1008.8 |
| 20260504013401 | 31 | 315 | 5.0 | 7.0 | 0.00 | 0.00 | 0.00 | 76 | 1008.8 |
| 20260504013200 | 31 | 295 | 2.0 | 6.0 | 0.00 | 0.00 | 0.00 | 76 | 1008.9 |
| 20260504012700 | 31 | 316 | 2.0 | 7.0 | 0.00 | 0.00 | 0.00 | 76 | 1008.8 |
| 20260504012301 | 31 | 310 | 3.0 | 7.0 | 0.00 | 0.00 | 0.00 | 77 | 1008.9 |
| 20260504012200 | 31 | 305 | 3.0 | 7.0 | 0.00 | 0.00 | 0.00 | 77 | 1008.9 |
| 20260504011700 | 30 | 320 | 6.0 | 6.0 | 0.00 | 0.00 | 0.00 | 77 | 1008.9 |
| 20260504011200 | 30 | 300 | 1.0 | 3.0 | 0.00 | 0.00 | 0.00 | 76 | 1008.9 |
| 20260504010700 | 30 | 306 | 0.0 | 2.0 | 0.00 | 0.00 | 0.00 | 75 | 1008.9 |
| 20260504010200 | 30 | 278 | 1.0 | 2.0 | 0.00 | 0.00 | 0.00 | 75 | 1008.9 |
| 20260504010101 | 30 | 279 | 1.0 | 2.0 | 0.00 | 0.00 | 0.00 | 75 | 1009.0 |
| 20260504005700 | 30 | 289 | 1.0 | 3.0 | 0.00 | 0.00 | 0.00 | 75 | 1009.1 |
| 20260504005200 | 30 | 306 | 2.0 | 2.0 | 0.00 | 0.00 | 0.00 | 75 | 1009.1 |
| 20260504005001 | 30 | 267 | 0.0 | 3.0 | 0.00 | 0.00 | 0.00 | 75 | 1009.1 |
| 20260504004700 | 30 | 305 | 1.0 | 3.0 | 0.00 | 0.00 | 0.00 | 76 | 1009.2 |
| 20260504004200 | 29 | 254 | 1.0 | 2.0 | 0.00 | 0.00 | 0.00 | 76 | 1009.2 |
| 20260504003901 | 29 | 302 | 2.0 | 3.0 | 0.00 | 0.00 | 0.00 | 76 | 1009.2 |
| 20260504003700 | 29 | 293 | 2.0 | 3.0 | 0.00 | 0.00 | 0.00 | 76 | 1009.3 |
| 20260504003200 | 29 | 279 | 1.0 | 3.0 | 0.00 | 0.00 | 0.00 | 75 | 1009.3 |
| 20260504002801 | 29 | 275 | 0.0 | 2.0 | 0.00 | 0.00 | 0.00 | 75 | 1009.3 |
| 20260504002700 | 29 | 275 | 0.0 | 2.0 | 0.00 | 0.00 | 0.00 | 75 | 1009.3 |
| 20260504002200 | 29 | 302 | 0.0 | 0.0 | 0.00 | 0.00 | 0.00 | 75 | 1009.4 |
| 20260504001700 | 29 | 302 | 0.0 | 0.0 | 0.00 | 0.00 | 0.00 | 74 | 1009.4 |
| 20260504001200 | 29 | 302 | 0.0 | 0.0 | 0.00 | 0.00 | 0.00 | 74 | 1009.4 |
| 20260504000700 | 29 | 302 | 0.0 | 0.0 | 0.00 | 0.00 | 0.00 | 73 | 1009.4 |
| 20260504000601 | 29 | 302 | 0.0 | 0.0 | 0.00 | 0.00 | 0.00 | 73 | 1009.6 |
| 20260504000200 | 29 | 302 | 0.0 | 0.0 | 0.00 | 0.00 | 0.00 | 72 | 1009.6 |
| 20260503235700 | 29 | 302 | 0.0 | 0.0 | 0.00 | 0.00 | 0.00 | 72 | 1009.6 |
| 20260503235501 | 30 | 302 | 0.0 | 0.0 | 0.00 | 0.00 | 0.00 | 71 | 1009.7 |
| 20260503235200 | 30 | 302 | 0.0 | 0.0 | 0.00 | 0.00 | 0.00 | 71 | 1009.7 |
| 20260503234700 | 30 | 302 | 0.0 | 0.0 | 0.00 | 0.00 | 0.00 | 71 | 1009.8 |
| 20260503234401 | 31 | 302 | 0.0 | 0.0 | 0.00 | 0.00 | 0.00 | 70 | 1009.8 |
| 20260503234200 | 31 | 302 | 0.0 | 0.0 | 0.00 | 0.00 | 0.00 | 70 | 1009.8 |
| 20260503233700 | 32 | 302 | 0.0 | 0.0 | 0.00 | 0.00 | 0.00 | 69 | 1009.8 |
| 20260503233301 | 32 | 302 | 0.0 | 3.0 | 0.00 | 0.00 | 0.00 | 70 | 1009.8 |
| 20260503233200 | 32 | 302 | 0.0 | 4.0 | 0.00 | 0.00 | 0.00 | 70 | 1009.8 |
| 20260503232700 | 31 | 322 | 4.0 | 4.0 | 0.00 | 0.00 | 0.00 | 71 | 1009.9 |
| 20260503232200 | 31 | 274 | 0.0 | 0.0 | 0.00 | 0.00 | 0.00 | 72 | 1009.8 |
| 20260503231700 | 30 | 274 | 0.0 | 0.0 | 0.00 | 0.00 | 0.00 | 73 | 1009.9 |
| 20260503231200 | 30 | 274 | 0.0 | 2.0 | 0.00 | 0.00 | 0.00 | 74 | 1009.9 |
| 20260503231101 | 29 | 274 | 0.0 | 2.0 | 0.00 | 0.00 | 0.00 | 74 | 1009.9 |
| 20260503230700 | 29 | 92 | 0.0 | 2.0 | 0.00 | 0.00 | 0.00 | 73 | 1009.9 |
| 20260503230200 | 30 | 116 | 2.0 | 3.0 | 0.00 | 0.00 | 0.00 | 72 | 1010.0 |
| 20260503230001 | 30 | 113 | 2.0 | 4.0 | 0.00 | 0.00 | 0.00 | 72 | 1009.9 |
| 20260503225700 | 30 | 115 | 3.0 | 4.0 | 0.00 | 0.00 | 0.00 | 72 | 1009.9 |
| 20260503225200 | 30 | 102 | 0.0 | 2.0 | 0.00 | 0.00 | 0.00 | 71 | 1009.9 |
| 20260503224901 | 30 | 299 | 0.0 | 0.0 | 0.00 | 0.00 | 0.00 | 71 | 1010.0 |
| 20260503224700 | 30 | 299 | 0.0 | 0.0 | 0.00 | 0.00 | 0.00 | 71 | 1009.9 |
| 20260503224200 | 31 | 299 | 0.0 | 0.0 | 0.00 | 0.00 | 0.00 | 70 | 1009.9 |
| 20260503223801 | 31 | 299 | 0.0 | 0.0 | 0.00 | 0.00 | 0.00 | 71 | 1010.0 |
| 20260503223700 | 31 | 299 | 0.0 | 2.0 | 0.00 | 0.00 | 0.00 | 71 | 1010.0 |
| 20260503223200 | 30 | 286 | 2.0 | 2.0 | 0.00 | 0.00 | 0.00 | 71 | 1010.0 |
| 20260503222700 | 30 | 120 | 1.0 | 4.0 | 0.00 | 0.00 | 0.00 | 71 | 1010.0 |
| 20260503222200 | 30 | 112 | 1.0 | 2.0 | 0.00 | 0.00 | 0.00 | 71 | 1010.1 |
| 20260503221700 | 30 | 129 | 1.0 | 3.0 | 0.00 | 0.00 | 0.00 | 71 | 1010.0 |
| 20260503221601 | 30 | 111 | 2.0 | 3.0 | 0.00 | 0.00 | 0.00 | 71 | 1010.1 |
| 20260503221200 | 30 | 133 | 3.0 | 3.0 | 0.00 | 0.00 | 0.00 | 72 | 1010.2 |
| 20260503220501 | 30 | 28 | 0.0 | 0.0 | 0.00 | 0.00 | 0.00 | 73 | 1010.3 |
| 20260503220200 | 30 | 28 | 0.0 | 0.0 | 0.00 | 0.00 | 0.00 | 72 | 1010.3 |
| 20260503215700 | 30 | 28 | 0.0 | 3.0 | 0.00 | 0.00 | 0.00 | 72 | 1010.3 |
| 20260503215401 | 30 | 92 | 0.0 | 3.0 | 0.00 | 0.00 | 0.00 | 72 | 1010.3 |
| 20260503215200 | 30 | 102 | 0.0 | 4.0 | 0.00 | 0.00 | 0.00 | 72 | 1010.3 |
| 20260503214700 | 30 | 91 | 0.0 | 0.0 | 0.00 | 0.00 | 0.00 | 71 | 1010.3 |
| 20260503214301 | 31 | 91 | 0.0 | 0.0 | 0.00 | 0.00 | 0.00 | 71 | 1010.3 |
| 20260503214200 | 31 | 91 | 0.0 | 0.0 | 0.00 | 0.00 | 0.00 | 70 | 1010.3 |
| 20260503213700 | 31 | 91 | 0.0 | 3.0 | 0.00 | 0.00 | 0.00 | 70 | 1010.3 |
| 20260503213200 | 31 | 120 | 0.0 | 4.0 | 0.00 | 0.00 | 0.00 | 70 | 1010.4 |
| 20260503212700 | 31 | 125 | 4.0 | 4.0 | 0.00 | 0.00 | 0.00 | 69 | 1010.3 |
| 20260503212200 | 31 | 120 | 0.0 | 0.0 | 0.00 | 0.00 | 0.00 | 68 | 1010.3 |
| 20260503212101 | 31 | 120 | 0.0 | 0.0 | 0.00 | 0.00 | 0.00 | 68 | 1010.4 |
| 20260503211700 | 32 | 120 | 0.0 | 3.0 | 0.00 | 0.00 | 0.00 | 68 | 1010.6 |
| 20260503211200 | 32 | 123 | 2.0 | 2.0 | 0.00 | 0.00 | 0.00 | 67 | 1010.4 |
| 20260503211001 | 32 | 59 | 0.0 | 0.0 | 0.00 | 0.00 | 0.00 | 67 | 1010.6 |
| 20260503210700 | 32 | 59 | 0.0 | 0.0 | 0.00 | 0.00 | 0.00 | 67 | 1010.6 |
| 20260503210200 | 33 | 59 | 0.0 | 6.0 | 0.00 | 0.00 | 0.00 | 66 | 1010.6 |
| 20260503205901 | 33 | 120 | 5.0 | 6.0 | 0.00 | 0.00 | 0.00 | 65 | 1010.6 |
| 20260503205700 | 33 | 126 | 3.0 | 6.0 | 0.00 | 0.00 | 0.00 | 65 | 1010.7 |
| 20260503205200 | 33 | 78 | 0.0 | 0.0 | 0.00 | 0.00 | 0.00 | 65 | 1010.7 |
| 20260503204801 | 34 | 78 | 0.0 | 0.0 | 0.00 | 0.00 | 0.00 | 65 | 1010.7 |
| 20260503204700 | 34 | 78 | 0.0 | 0.0 | 0.00 | 0.00 | 0.00 | 64 | 1010.7 |
| 20260503204200 | 34 | 78 | 0.0 | 0.0 | 0.00 | 0.00 | 0.00 | 64 | 1010.7 |
| 20260503203700 | 34 | 78 | 0.0 | 0.0 | 0.00 | 0.00 | 0.00 | 63 | 1010.6 |
| 20260503203200 | 34 | 78 | 0.0 | 0.0 | 0.00 | 0.00 | 0.00 | 62 | 1010.6 |
| 20260503202700 | 35 | 78 | 0.0 | 0.0 | 0.00 | 0.00 | 0.00 | 61 | 1010.7 |
| 20260503202601 | 35 | 78 | 0.0 | 0.0 | 0.00 | 0.00 | 0.00 | 61 | 1010.7 |
| 20260503202200 | 35 | 78 | 0.0 | 2.0 | 0.00 | 0.00 | 0.00 | 60 | 1010.6 |
| 20260503201700 | 36 | 99 | 1.0 | 5.0 | 0.00 | 0.00 | 0.00 | 59 | 1010.7 |
| 20260503201501 | 36 | 109 | 3.0 | 5.0 | 0.00 | 0.00 | 0.00 | 59 | 1010.8 |
| 20260503201200 | 37 | 122 | 3.0 | 3.0 | 0.00 | 0.00 | 0.00 | 58 | 1010.7 |
| 20260503200700 | 37 | 295 | 0.0 | 0.0 | 0.00 | 0.00 | 0.00 | 56 | 1010.7 |
| 20260503200401 | 37 | 295 | 0.0 | 0.0 | 0.00 | 0.00 | 0.00 | 56 | 1010.8 |
| 20260503200200 | 37 | 295 | 0.0 | 0.0 | 0.00 | 0.00 | 0.00 | 56 | 1010.8 |
| 20260503195700 | 38 | 295 | 0.0 | 0.0 | 0.00 | 0.00 | 0.00 | 56 | 1010.8 |
| 20260503195301 | 38 | 302 | 0.0 | 0.0 | 0.00 | 0.00 | 0.00 | 55 | 1010.9 |
| 20260503195200 | 38 | 302 | 0.0 | 0.0 | 0.00 | 0.00 | 0.00 | 55 | 1010.9 |
| 20260503194700 | 38 | 302 | 0.0 | 3.0 | 0.00 | 0.00 | 0.00 | 55 | 1010.9 |
| 20260503194201 | 39 | 293 | 0.0 | 0.0 | 0.00 | 0.00 | 0.00 | 54 | 1010.9 |
| 20260503193700 | 39 | 293 | 0.0 | 0.0 | 0.00 | 0.00 | 0.00 | 54 | 1010.9 |
| 20260503193200 | 40 | 293 | 0.0 | 0.0 | 0.00 | 0.00 | 0.00 | 51 | 1010.8 |
| 20260503193101 | 40 | 293 | 0.0 | 0.0 | 0.00 | 0.00 | 0.00 | 51 | 1011.0 |
| 20260503192700 | 40 | 293 | 0.0 | 0.0 | 0.00 | 0.00 | 0.00 | 51 | 1011.0 |
| 20260503192200 | 41 | 293 | 0.0 | 0.0 | 0.00 | 0.00 | 0.00 | 50 | 1010.9 |
| 20260503192001 | 41 | 293 | 0.0 | 2.0 | 0.00 | 0.00 | 0.00 | 50 | 1010.9 |
| 20260503191700 | 41 | 293 | 0.0 | 3.0 | 0.00 | 0.00 | 0.00 | 49 | 1010.9 |
| 20260503191200 | 42 | 289 | 0.0 | 5.0 | 0.00 | 0.00 | 0.00 | 48 | 1010.9 |
| 20260503190901 | 42 | 306 | 0.0 | 5.0 | 0.00 | 0.00 | 0.00 | 48 | 1011.0 |
| 20260503190700 | 43 | 299 | 5.0 | 5.0 | 0.00 | 0.00 | 0.00 | 47 | 1011.0 |
| 20260503190200 | 44 | 222 | 0.0 | 6.0 | 0.00 | 0.00 | 0.00 | 46 | 1010.9 |
| 20260503185801 | 45 | 262 | 2.0 | 7.0 | 0.00 | 0.00 | 0.00 | 45 | 1010.9 |
| 20260503185700 | 44 | 327 | 2.0 | 7.0 | 0.00 | 0.00 | 0.00 | 45 | 1010.9 |
| 20260503185200 | 45 | 282 | 0.0 | 4.0 | 0.00 | 0.00 | 0.00 | 45 | 1010.8 |
| 20260503184700 | 44 | 292 | 2.0 | 8.0 | 0.00 | 0.00 | 0.00 | 45 | 1010.8 |
| 20260503184200 | 44 | 302 | 1.0 | 6.0 | 0.00 | 0.00 | 0.00 | 45 | 1010.9 |
| 20260503183700 | 44 | 295 | 0.0 | 7.0 | 0.00 | 0.00 | 0.00 | 45 | 1010.9 |
| 20260503183601 | 44 | 299 | 2.0 | 7.0 | 0.00 | 0.00 | 0.00 | 45 | 1010.9 |
| 20260503183200 | 44 | 323 | 0.0 | 7.0 | 0.00 | 0.00 | 0.00 | 45 | 1011.0 |
| 20260503182701 | 44 | 258 | 5.0 | 8.0 | 0.00 | 0.00 | 0.00 | 44 | 1011.0 |
| 20260503182501 | 44 | 310 | 2.0 | 7.0 | 0.00 | 0.00 | 0.00 | 44 | 1010.9 |
| 20260503182200 | 44 | 292 | 4.0 | 7.0 | 0.00 | 0.00 | 0.00 | 44 | 1010.9 |
| 20260503181700 | 44 | 302 | 4.0 | 9.0 | 0.00 | 0.00 | 0.00 | 43 | 1010.9 |
| 20260503181401 | 44 | 217 | 2.0 | 10.0 | 0.00 | 0.00 | 0.00 | 42 | 1010.9 |
| 20260503181200 | 44 | 293 | 4.0 | 10.0 | 0.00 | 0.00 | 0.00 | 42 | 1010.9 |
| 20260503180700 | 45 | 241 | 1.0 | 8.0 | 0.00 | 0.00 | 0.00 | 42 | 1011.0 |
| 20260503180301 | 45 | 299 | 2.0 | 8.0 | 0.00 | 0.00 | 0.00 | 41 | 1011.0 |
| 20260503180200 | 45 | 309 | 6.0 | 8.0 | 0.00 | 0.00 | 0.00 | 41 | 1011.0 |
| 20260503175700 | 45 | 317 | 4.0 | 9.0 | 0.00 | 0.00 | 0.00 | 41 | 1011.0 |
| 20260503175200 | 45 | 310 | 2.0 | 11.0 | 0.00 | 0.00 | 0.00 | 39 | 1011.0 |
| 20260503174700 | 45 | 322 | 11.0 | 11.0 | 0.00 | 0.00 | 0.00 | 40 | 1011.0 |
| 20260503174200 | 45 | 289 | 4.0 | 8.0 | 0.00 | 0.00 | 0.00 | 39 | 1011.0 |
| 20260503174101 | 45 | 291 | 5.0 | 11.0 | 0.00 | 0.00 | 0.00 | 39 | 1011.1 |
| 20260503173700 | 45 | 300 | 3.0 | 12.0 | 0.00 | 0.00 | 0.00 | 38 | 1011.2 |
| 20260503173200 | 46 | 323 | 3.0 | 10.0 | 0.00 | 0.00 | 0.00 | 39 | 1011.3 |
| 20260503173002 | 46 | 329 | 3.0 | 10.0 | 0.00 | 0.00 | 0.00 | 38 | 1011.3 |
| 20260503172701 | 46 | 293 | 3.0 | 9.0 | 0.00 | 0.00 | 0.00 | 39 | 1011.2 |
| 20260503172201 | 46 | 307 | 4.0 | 12.0 | 0.00 | 0.00 | 0.00 | 39 | 1011.3 |
| 20260503171901 | 46 | 310 | 5.0 | 12.0 | 0.00 | 0.00 | 0.00 | 39 | 1011.3 |
| 20260503171701 | 46 | 310 | 5.0 | 10.0 | 0.00 | 0.00 | 0.00 | 39 | 1011.3 |
| 20260503171201 | 46 | 320 | 7.0 | 12.0 | 0.00 | 0.00 | 0.00 | 40 | 1011.2 |
| 20260503170802 | 46 | 282 | 3.0 | 12.0 | 0.00 | 0.00 | 0.00 | 38 | 1011.3 |
| 20260503170701 | 46 | 282 | 8.0 | 8.0 | 0.00 | 0.00 | 0.00 | 39 | 1011.3 |
| 20260503170201 | 46 | 323 | 3.0 | 14.0 | 0.00 | 0.00 | 0.00 | 36 | 1011.3 |
| 20260503160201 | 47 | 310 | 6.0 | 13.0 | 0.00 | 0.00 | 0.00 | 37 | 1011.8 |
| 20260503150701 | 50 | 298 | 4.0 | 11.0 | 0.00 | 0.00 | 0.00 | 23 | 1012.1 |
| 20260503150201 | 51 | 225 | 4.0 | 14.0 | 0.00 | 0.00 | 0.00 | 24 | 1012.1 |
| 20260503140201 | 52 | 296 | 5.0 | 11.0 | 0.00 | 0.00 | 0.00 | 30 | 1012.6 |
| 20260503131201 | 52 | 310 | 4.0 | 10.0 | 0.00 | 0.00 | 0.00 | 35 | 1013.1 |
| 20260503130701 | 52 | 277 | 2.0 | 9.0 | 0.00 | 0.00 | 0.00 | 34 | 1013.1 |
| 20260503130602 | 52 | 319 | 2.0 | 9.0 | 0.00 | 0.00 | 0.00 | 32 | 1013.1 |
| 20260503130201 | 52 | 147 | 1.0 | 9.0 | 0.00 | 0.00 | 0.00 | 35 | 1013.1 |
| 20260503120201 | 50 | 289 | 4.0 | 6.0 | 0.00 | 0.00 | 0.00 | 48 | 1013.7 |
| 20260503110701 | 47 | 319 | 2.0 | 8.0 | 0.00 | 0.00 | 0.00 | 46 | 1013.9 |
| 20260503110502 | 47 | 334 | 2.0 | 8.0 | 0.00 | 0.00 | 0.00 | 47 | 1014.0 |
| 20260503110201 | 47 | 248 | 1.0 | 9.0 | 0.00 | 0.00 | 0.00 | 46 | 1014.0 |
| 20260503100201 | 43 | 279 | 0.0 | 2.0 | 0.00 | 0.00 | 0.00 | 58 | 1014.6 |
| 20260503090402 | 47 | 300 | 0.0 | 8.0 | 0.00 | 0.00 | 0.00 | 58 | 1014.8 |
| 20260503090201 | 47 | 111 | 3.0 | 8.0 | 0.00 | 0.00 | 0.00 | 60 | 1014.8 |
| 20260503081201 | 43 | 59 | 0.0 | 0.0 | 0.00 | 0.00 | 0.00 | 66 | 1015.0 |
| 20260503080902 | 42 | 59 | 0.0 | 1.0 | 0.00 | 0.00 | 0.00 | 67 | 1015.0 |
| 20260503080701 | 42 | 59 | 0.0 | 1.0 | 0.00 | 0.00 | 0.00 | 67 | 1015.0 |
| 20260503080201 | 42 | 144 | 0.0 | 0.0 | 0.00 | 0.00 | 0.00 | 68 | 1015.0 |
| 20260503072701 | 39 | 111 | 2.0 | 5.0 | 0.00 | 0.00 | 0.00 | 73 | 1015.0 |
| 20260503072503 | 39 | 130 | 2.0 | 5.0 | 0.00 | 0.00 | 0.00 | 73 | 1015.2 |
| 20260503072202 | 39 | 94 | 0.0 | 4.0 | 0.00 | 0.00 | 0.00 | 74 | 1015.0 |
| 20260503071702 | 39 | 23 | 0.0 | 3.0 | 0.00 | 0.00 | 0.00 | 74 | 1015.2 |
| 20260503071403 | 39 | 39 | 2.0 | 3.0 | 0.00 | 0.00 | 0.00 | 75 | 1015.2 |
| 20260503071202 | 39 | 189 | 0.0 | 2.0 | 0.00 | 0.00 | 0.00 | 75 | 1015.0 |
| 20260503070702 | 38 | 47 | 0.0 | 4.0 | 0.00 | 0.00 | 0.00 | 75 | 1015.0 |
| 20260503070303 | 38 | 191 | 1.0 | 2.0 | 0.00 | 0.00 | 0.00 | 75 | 1015.0 |
| 20260503070202 | 38 | 40 | 0.0 | 2.0 | 0.00 | 0.00 | 0.00 | 75 | 1015.0 |
| 20260503060202 | 37 | 144 | 4.0 | 4.0 | 0.00 | 0.00 | 0.00 | 82 | 1014.8 |
| 20260503054702 | 36 | 129 | 3.0 | 5.0 | 0.00 | 0.00 | 0.00 | 83 | 1014.7 |
| 20260503054603 | 36 | 90 | 1.0 | 5.0 | 0.00 | 0.00 | 0.00 | 83 | 1014.7 |
| 20260503054202 | 36 | 105 | 2.0 | 7.0 | 0.00 | 0.00 | 0.00 | 84 | 1014.7 |
| 20260503053702 | 36 | 146 | 2.0 | 5.0 | 0.00 | 0.00 | 0.00 | 85 | 1014.7 |
| 20260503053503 | 36 | 106 | 2.0 | 5.0 | 0.00 | 0.00 | 0.00 | 85 | 1014.7 |
| 20260503053202 | 36 | 111 | 1.0 | 5.0 | 0.00 | 0.00 | 0.00 | 86 | 1014.7 |
| 20260503052702 | 35 | 118 | 2.0 | 4.0 | 0.00 | 0.00 | 0.00 | 86 | 1014.7 |
| 20260503052403 | 35 | 229 | 1.0 | 4.0 | 0.00 | 0.00 | 0.00 | 87 | 1014.7 |
| 20260503052202 | 35 | 135 | 0.0 | 2.0 | 0.00 | 0.00 | 0.00 | 87 | 1014.7 |
| 20260503052120 | 35 | 126 | 2.0 | 2.0 | 0.00 | 0.00 | 0.00 | 87 | 1014.7 |
| 20260503051702 | 35 | 135 | 0.0 | 3.0 | 0.00 | 0.00 | 0.00 | 87 | 1014.7 |
| 20260503051607 | 34 | 63 | 0.0 | 0.0 | 0.00 | 0.00 | 0.00 | 88 | 1014.7 |
| 20260503051303 | 35 | 126 | 2.0 | 2.0 | 0.00 | 0.00 | 0.00 | 87 | 1014.7 |
| 20260503051202 | 35 | 74 | 0.0 | 2.0 | 0.00 | 0.00 | 0.00 | 87 | 1014.6 |
| 20260503050702 | 35 | 63 | 0.0 | 0.0 | 0.00 | 0.00 | 0.00 | 87 | 1014.6 |
| 20260503050202 | 34 | 63 | 0.0 | 0.0 | 0.00 | 0.00 | 0.00 | 88 | 1014.6 |
| 20260503045702 | 34 | 63 | 0.0 | 0.0 | 0.00 | 0.00 | 0.00 | 88 | 1014.6 |
| 20260503045202 | 34 | 63 | 0.0 | 0.0 | 0.00 | 0.00 | 0.00 | 88 | 1014.7 |
| 20260503045103 | 34 | 63 | 0.0 | 0.0 | 0.00 | 0.00 | 0.00 | 88 | 1014.7 |
| 20260503044702 | 34 | 63 | 0.0 | 0.0 | 0.00 | 0.00 | 0.00 | 88 | 1014.8 |
| 20260503044202 | 34 | 63 | 0.0 | 0.0 | 0.00 | 0.00 | 0.00 | 88 | 1014.8 |
| 20260503044003 | 34 | 63 | 0.0 | 1.0 | 0.00 | 0.00 | 0.00 | 88 | 1014.8 |
| 20260503043702 | 34 | 63 | 0.0 | 1.0 | 0.00 | 0.00 | 0.00 | 88 | 1014.7 |
| 20260503043202 | 34 | 279 | 0.0 | 0.0 | 0.00 | 0.00 | 0.00 | 88 | 1014.6 |
| 20260503042903 | 33 | 279 | 0.0 | 0.0 | 0.00 | 0.00 | 0.00 | 88 | 1014.7 |
| 20260503042702 | 33 | 279 | 0.0 | 1.0 | 0.00 | 0.00 | 0.00 | 88 | 1014.6 |
| 20260503042202 | 33 | 312 | 0.0 | 1.0 | 0.00 | 0.00 | 0.00 | 88 | 1014.6 |
| 20260503041803 | 33 | 299 | 0.0 | 0.0 | 0.00 | 0.00 | 0.00 | 88 | 1014.6 |
| 20260503041702 | 33 | 299 | 0.0 | 0.0 | 0.00 | 0.00 | 0.00 | 88 | 1014.6 |
| 20260503041202 | 33 | 299 | 0.0 | 0.0 | 0.00 | 0.00 | 0.00 | 88 | 1014.5 |
| 20260503040702 | 33 | 299 | 0.0 | 1.0 | 0.00 | 0.00 | 0.00 | 88 | 1014.5 |
| 20260503040202 | 33 | 338 | 0.0 | 0.0 | 0.00 | 0.00 | 0.00 | 88 | 1014.4 |
| 20260503035702 | 33 | 338 | 0.0 | 0.0 | 0.00 | 0.00 | 0.00 | 88 | 1014.3 |
| 20260503035603 | 33 | 338 | 0.0 | 0.0 | 0.00 | 0.00 | 0.00 | 88 | 1014.4 |
| 20260503035202 | 33 | 306 | 0.0 | 1.0 | 0.00 | 0.00 | 0.00 | 87 | 1014.4 |